TimePST,TemperatureF,Dew PointF,Humidity,Sea Level PressureIn,VisibilityMPH,Wind Direction,Wind SpeedMPH,Gust SpeedMPH,PrecipitationIn,Events,Conditions,WindDirDegrees,DateUTC
12:08 AM,21.2,17.6,86,30.32,1.2,Calm,Calm,-,N/A,,Overcast,0,2013-01-19 08:08:00
12:23 AM,21.2,17.6,86,30.32,1.0,Calm,Calm,-,N/A,,Overcast,0,2013-01-19 08:23:00
12:45 AM,21.2,19.4,93,30.32,1.2,Calm,Calm,-,N/A,,Overcast,0,2013-01-19 08:45:00
12:49 AM,21.2,19.4,93,30.32,0.8,Calm,Calm,-,N/A,,Mist,0,2013-01-19 08:49:00
12:53 AM,21.9,19.0,89,30.39,0.8,Calm,Calm,-,N/A,,Mist,0,2013-01-19 08:53:00
1:53 AM,23.0,18.0,81,30.41,0.8,Calm,Calm,-,N/A,,Haze,0,2013-01-19 09:53:00
2:05 AM,23.0,19.4,86,30.34,1.2,Calm,Calm,-,N/A,,Overcast,0,2013-01-19 10:05:00
2:28 AM,23.0,19.4,86,30.34,3.0,Calm,Calm,-,N/A,,Overcast,0,2013-01-19 10:28:00
2:53 AM,23.0,19.0,85,30.42,3.0,Calm,Calm,-,N/A,,Overcast,0,2013-01-19 10:53:00
3:07 AM,23.0,19.4,86,30.34,2.0,Calm,Calm,-,N/A,,Overcast,0,2013-01-19 11:07:00
3:35 AM,23.0,19.4,86,30.34,1.0,Calm,Calm,-,N/A,,Overcast,0,2013-01-19 11:35:00
3:51 AM,23.0,19.4,86,30.34,1.5,Calm,Calm,-,N/A,,Overcast,0,2013-01-19 11:51:00
3:53 AM,23.0,19.0,85,30.41,2.0,Calm,Calm,-,N/A,,Overcast,0,2013-01-19 11:53:00
4:02 AM,24.8,19.4,80,30.34,4.0,Calm,Calm,-,N/A,,Haze,0,2013-01-19 12:02:00
4:30 AM,24.8,19.4,80,30.34,2.0,Calm,Calm,-,N/A,,Overcast,0,2013-01-19 12:30:00
4:37 AM,24.8,19.4,80,30.34,1.2,Calm,Calm,-,N/A,,Overcast,0,2013-01-19 12:37:00
4:41 AM,24.8,19.4,80,30.34,0.8,Calm,Calm,-,N/A,,Overcast,0,2013-01-19 12:41:00
4:53 AM,24.1,19.9,84,30.42,0.5,Calm,Calm,-,N/A,Fog,Light Freezing Fog,0,2013-01-19 12:53:00
5:53 AM,24.1,19.9,84,30.43,0.5,Calm,Calm,-,N/A,Fog,Light Freezing Fog,0,2013-01-19 13:53:00
6:53 AM,21.9,19.0,89,30.43,0.2,Calm,Calm,-,N/A,Fog,Light Freezing Fog,0,2013-01-19 14:53:00
7:53 AM,21.9,19.0,89,30.45,0.2,Calm,Calm,-,N/A,Fog,Light Freezing Fog,0,2013-01-19 15:53:00
8:53 AM,21.9,19.0,89,30.48,0.2,Calm,Calm,-,N/A,Fog,Light Freezing Fog,0,2013-01-19 16:53:00
9:53 AM,24.1,19.9,84,30.49,0.5,Calm,Calm,-,N/A,Fog,Light Freezing Fog,0,2013-01-19 17:53:00
9:59 AM,24.8,19.4,80,30.41,1.2,Calm,Calm,-,N/A,,Haze,0,2013-01-19 17:59:00
10:27 AM,23.0,19.4,86,30.41,1.0,Calm,Calm,-,N/A,,Overcast,0,2013-01-19 18:27:00
10:43 AM,24.8,19.4,80,30.41,0.8,Calm,Calm,-,N/A,,Overcast,0,2013-01-19 18:43:00
10:47 AM,24.8,19.4,80,30.41,1.2,Calm,Calm,-,N/A,,Overcast,0,2013-01-19 18:47:00
10:53 AM,24.1,19.9,84,30.49,1.8,Calm,Calm,-,N/A,,Overcast,0,2013-01-19 18:53:00
11:25 AM,24.8,21.2,86,30.40,2.0,Calm,Calm,-,N/A,,Overcast,0,2013-01-19 19:25:00
11:44 AM,24.8,21.2,86,30.40,1.8,Calm,Calm,-,N/A,,Overcast,0,2013-01-19 19:44:00
11:53 AM,24.1,19.9,84,30.47,2.0,Calm,Calm,-,N/A,,Overcast,0,2013-01-19 19:53:00
12:08 PM,24.8,19.4,80,30.39,1.2,Calm,Calm,-,N/A,,Overcast,0,2013-01-19 20:08:00
12:53 PM,26.1,21.0,81,30.45,1.8,Calm,Calm,-,N/A,,Haze,0,2013-01-19 20:53:00
1:03 PM,26.6,21.2,80,30.38,2.5,Calm,Calm,-,N/A,,Haze,0,2013-01-19 21:03:00
1:15 PM,24.8,21.2,86,30.37,1.8,Calm,Calm,-,N/A,,Overcast,0,2013-01-19 21:15:00
1:25 PM,26.6,21.2,80,30.37,2.0,Calm,Calm,-,N/A,,Haze,0,2013-01-19 21:25:00
1:53 PM,26.1,21.0,81,30.44,2.5,Calm,Calm,-,N/A,,Haze,0,2013-01-19 21:53:00
2:13 PM,26.6,21.2,80,30.37,3.0,Calm,Calm,-,N/A,,Haze,0,2013-01-19 22:13:00
2:53 PM,26.1,21.0,81,30.44,3.0,WSW,3.5,-,N/A,,Haze,250,2013-01-19 22:53:00
3:20 PM,26.6,21.2,80,30.37,2.5,West,3.5,-,N/A,,Haze,260,2013-01-19 23:20:00
3:50 PM,24.8,21.2,86,30.38,1.5,West,4.6,-,N/A,,Overcast,270,2013-01-19 23:50:00
3:53 PM,25.0,21.0,85,30.45,1.2,West,4.6,-,N/A,,Overcast,270,2013-01-19 23:53:00
4:16 PM,24.8,21.2,86,30.38,0.8,West,5.8,-,N/A,,Overcast,260,2013-01-20 00:16:00
4:53 PM,25.0,21.0,85,30.46,0.5,West,4.6,-,N/A,Fog,Light Freezing Fog,280,2013-01-20 00:53:00
5:53 PM,25.0,21.0,85,30.46,0.8,NNW,4.6,-,N/A,,Mist,330,2013-01-20 01:53:00
6:08 PM,24.8,21.2,86,30.39,1.2,WNW,3.5,-,N/A,,Overcast,300,2013-01-20 02:08:00
6:22 PM,24.8,21.2,86,30.39,0.8,WNW,4.6,-,N/A,,Overcast,290,2013-01-20 02:22:00
6:48 PM,24.8,21.2,86,30.39,-9999.0,WNW,4.6,-,N/A,,Overcast,290,2013-01-20 02:48:00
6:53 PM,25.0,21.9,88,30.47,-9999.0,West,3.5,-,N/A,,Overcast,270,2013-01-20 02:53:00
7:53 PM,25.0,21.0,85,30.49,-9999.0,West,3.5,-,N/A,,Overcast,270,2013-01-20 03:53:00
8:53 PM,25.0,21.0,85,30.49,-9999.0,WSW,4.6,-,N/A,,Overcast,250,2013-01-20 04:53:00
9:53 PM,24.1,21.0,88,30.50,-9999.0,West,4.6,-,N/A,,Overcast,260,2013-01-20 05:53:00
10:53 PM,25.0,21.0,85,30.50,-9999.0,West,3.5,-,N/A,,Overcast,270,2013-01-20 06:53:00
11:53 PM,25.0,21.0,85,30.50,-9999.0,Calm,Calm,-,N/A,,Overcast,0,2013-01-20 07:53:00